Location: Gungolding
(48.9246°N, 11.3502°E)
Time: 21:54:55
(UTC+02:00)

Vanguard 2 Rocket - All Passes

Search period start: 07 April 2020 00:00
Search period end: 17 April 2020 00:00
Orbit: 554 x 3326 km, 32.9° (Epoch: 07 April)

Date Brightness Start Highest point End Pass type
(mag) Time Alt. Az. Time Alt. Az. Time Alt. Az.
07 Apr - 10:53:49 10° SSW 10:56:07 13° S 10:58:49 10° SSE daylight
07 Apr - 13:07:10 10° SSW 13:08:30 11° SSW 13:09:57 10° S daylight
08 Apr - 09:55:46 10° S 09:57:05 11° S 09:58:29 10° SSE daylight
08 Apr - 12:07:49 10° SSW 12:09:10 11° S 12:10:39 10° S daylight
09 Apr - 11:09:04 10° SSW 11:09:59 10° S 11:10:57 10° S daylight
16 Apr - 06:27:04 10° SSW 06:28:31 11° S 06:29:51 10° SSE daylight
